Regional Weather Roundup
Issued by NWS

Home | Current Version | Previous Version | Graphics & Text | Print | Product List | Glossary On
Versions: 1 2 3 4 5 6 7 8 9 10 11 12 13 14 15 16 17 18 19 20 21 22 23 24 25 26 27 28 29 30 31 32 33 34 35 36 37 38 39 40 41 42 43 44 45 46 47 48 49 50
000
ASUS43 KFSD 170110
RWRSD

WEATHER ROUNDUP FOR SOUTH DAKOTA
NATIONAL WEATHER SERVICE SIOUX FALLS SD
700 PM CST TUE JAN 16 2018

NOTE: "FAIR" INDICATES FEW OR NO CLOUDS BELOW 12,000 FEET WITH NO
SIGNIFICANT WEATHER AND/OR OBSTRUCTIONS TO VISIBILITY.


SDZ001>005-009-010-012>017-170200-
NORTHWEST AND NORTH CENTRAL SOUTH DAKOTA

CITY           SKY/WX    TMP DP  RH WIND       PRES   REMARKS
BUFFALO          N/A      2  -5  72 S10       30.16F WCI -14
FAITH            N/A      9   1  70 S23       30.27F WCI -11
MOBRIDGE       CLOUDY     9  -2  61 S7        30.36F WCI  -2
$$

SDZ012>016-024>037-041>051-057-063-072>074-170200-
SOUTHWEST AND SOUTH CENTRAL SOUTH DAKOTA

CITY           SKY/WX    TMP DP  RH WIND       PRES   REMARKS
RAPID CTY ARPT MOCLDY    18   6  59 SE8       30.25F WCI   8
PIERRE         CLOUDY     7   1  76 SE9       30.43F WCI  -7
CUSTER         MOCLDY    25 -15  16 W3        30.19F
ELLSWORTH AFB  MOCLDY    22   7  50 S9        30.23F WCI  12
PHILIP         CLOUDY    14   7  73 SE6       30.35F WCI   5
PINE RIDGE     CLOUDY    19   3  49 SW8       30.31F WCI   9
SPEARFISH        N/A     21  10  63 S5        30.20F WCI  15
WINNER         FAIR      13   2  61 S10       30.44F WCI   0
$$

SDZ004>011-016>023-039-040-170200-
NORTHEAST SOUTH DAKOTA

CITY           SKY/WX    TMP DP  RH WIND       PRES   REMARKS
ABERDEEN       MOCLDY     4  -2  76 S14       30.49F WCI -14
WATERTOWN      CLOUDY     0  -4  83 S9        30.49F WCI -15
BROOKINGS      CLOUDY     1  -4  79 SW7       30.54F WCI -12
SISSETON         N/A      9  -1  64 SW9       30.50F WCI  -4
$$

SDZ017-020-022-023-036>040-048>070-170200-
SOUTHEAST SOUTH DAKOTA

CITY           SKY/WX    TMP DP  RH WIND       PRES   REMARKS
SIOUX FALLS    CLOUDY     2  -2  83 SW5       30.59F WCI  -8
HURON          CLOUDY     4  -3  73 S7        30.55F WCI  -8
CHAMBERLAIN    CLOUDY     8   1  74 SE8       30.50F WCI  -5
MITCHELL       CLOUDY     3  -3  76 S6        30.58F WCI  -8
YANKTON        CLOUDY     1  -7  68 CALM      30.62F
$$

ABBREVIATIONS USED IN REMARKS
   TC - TEMPERATURE IN CELSIUS
  WCI - WIND CHILL INDEX
   HX - HEAT INDEX
  VSB - VISIBILITY




USA.gov is the U.S. government's official web portal to all federal, state and local government web resources and services.